JST126 WADD-YPAD

Flight info

Callsign JST126
Flight time 4h 24m
Altitude 35000
Route KALIV B349 BOPLO DCT 15S118E DCT SAFIR/N0442F370 DCT DAZZA DCT NONAX DCT BUNNY DCT 30S130E DCT KAMBI N640 ATNAR
Aircraft A320/M-SDE3FGHIRWY/LB1

Departure

Time 2025-09-09 02:01
Airport Denpasar I Gusti Ngurah Rai International Airport (WADD)

Arrival

Time 2025-09-09 06:25
Airport Adelaide International Airport (YPAD)
Time Latitude Longitude Altitude Speed Heading
2025-09-09 01:37 -8.74520 115.17127 20 ft 0 kts 357°
2025-09-09 01:49 -8.74539 115.17128 21 ft 2 kts 356°
2025-09-09 01:50 -8.74588 115.17135 24 ft 2 kts 348°
2025-09-09 01:50 -8.74604 115.17138 24 ft 2 kts 343°
2025-09-09 01:51 -8.74635 115.17151 24 ft 2 kts 323°
2025-09-09 01:51 -8.74652 115.17177 23 ft 1 kts 269°
2025-09-09 01:53 -8.74658 115.17076 20 ft 9 kts 267°
2025-09-09 01:53 -8.74661 115.17009 20 ft 10 kts 267°
2025-09-09 01:54 -8.74672 115.16759 20 ft 14 kts 268°
2025-09-09 01:55 -8.74679 115.16552 20 ft 16 kts 268°
2025-09-09 01:55 -8.74689 115.16291 20 ft 20 kts 268°
2025-09-09 01:56 -8.74705 115.15987 20 ft 23 kts 270°
2025-09-09 01:56 -8.74717 115.15649 20 ft 25 kts 268°
2025-09-09 01:57 -8.74751 115.15396 21 ft 13 kts 218°
2025-09-09 01:57 -8.74790 115.15387 21 ft 0 kts 178°
2025-09-09 01:59 -8.74874 115.15407 22 ft 9 kts 133°
2025-09-09 01:59 -8.74891 115.15472 20 ft 11 kts 86°
2025-09-09 02:00 -8.74849 115.16535 21 ft 129 kts 88°
2025-09-09 02:00 -8.74934 115.18747 471 ft 166 kts 96°
2025-09-09 02:01 -8.74939 115.21092 1606 ft 174 kts 91°
2025-09-09 02:01 -8.74874 115.22325 2081 ft 181 kts 90°
2025-09-09 02:02 -8.74561 115.28600 3576 ft 255 kts 89°
2025-09-09 02:02 -8.74383 115.32227 5201 ft 262 kts 88°
2025-09-09 02:03 -8.74192 115.35930 6685 ft 270 kts 88°
2025-09-09 02:03 -8.74004 115.39760 8094 ft 275 kts 88°
2025-09-09 02:04 -8.73910 115.41702 8761 ft 278 kts 87°
2025-09-09 02:04 -8.73708 115.45650 10110 ft 284 kts 88°
2025-09-09 02:05 -8.75121 115.49459 10437 ft 325 kts 139°
2025-09-09 02:05 -8.79541 115.50834 10969 ft 348 kts 178°
2025-09-09 02:06 -8.86807 115.50748 11016 ft 348 kts 178°
2025-09-09 02:06 -8.91652 115.50708 11016 ft 348 kts 178°
2025-09-09 02:07 -8.94043 115.50678 11025 ft 348 kts 178°
2025-09-09 02:07 -8.98885 115.50599 11027 ft 348 kts 179°
2025-09-09 02:08 -9.03722 115.50513 11027 ft 347 kts 179°
2025-09-09 02:08 -9.08572 115.50430 11313 ft 351 kts 179°
2025-09-09 02:09 -9.13479 115.50349 12546 ft 355 kts 178°
2025-09-09 02:09 -9.18428 115.50269 13656 ft 361 kts 178°
2025-09-09 02:09 -9.20953 115.50227 14160 ft 364 kts 178°
2025-09-09 02:10 -9.28645 115.50097 15590 ft 373 kts 178°
2025-09-09 02:11 -9.33830 115.50017 16018 ft 376 kts 178°
2025-09-09 02:11 -9.39060 115.49933 16027 ft 376 kts 179°
2025-09-09 02:12 -9.44294 115.49847 16026 ft 376 kts 178°
2025-09-09 02:12 -9.49532 115.49756 16028 ft 377 kts 179°
2025-09-09 02:13 -9.54677 115.50351 16028 ft 371 kts 159°
2025-09-09 02:13 -9.59227 115.52804 16876 ft 373 kts 146°
2025-09-09 02:14 -9.65888 115.57000 18218 ft 382 kts 146°
2025-09-09 02:14 -9.68156 115.58429 18603 ft 385 kts 146°
2025-09-09 02:15 -9.75071 115.62801 19723 ft 396 kts 146°
2025-09-09 02:15 -9.77420 115.64285 20103 ft 399 kts 146°
2025-09-09 02:16 -9.82150 115.67267 20845 ft 406 kts 146°
2025-09-09 02:16 -9.86997 115.70322 21565 ft 414 kts 146°
2025-09-09 02:17 -9.91922 115.73444 22302 ft 421 kts 146°
2025-09-09 02:17 -9.94414 115.75028 22646 ft 424 kts 146°
2025-09-09 02:18 -10.01982 115.79816 23630 ft 434 kts 146°
2025-09-09 02:18 -10.09726 115.84719 24507 ft 440 kts 147°
2025-09-09 02:19 -10.12326 115.86362 24808 ft 441 kts 147°
2025-09-09 02:21 -10.33366 115.99689 27051 ft 452 kts 148°
2025-09-09 02:23 -10.55286 116.12711 29074 ft 461 kts 154°
2025-09-09 02:24 -10.74978 116.23132 31518 ft 452 kts 153°
2025-09-09 02:27 -11.02270 116.37823 34762 ft 439 kts 152°
2025-09-09 02:29 -11.21426 116.48409 35031 ft 453 kts 152°
2025-09-09 02:31 -11.46378 116.62152 35036 ft 454 kts 152°
2025-09-09 02:33 -11.65811 116.72906 35039 ft 455 kts 153°
2025-09-09 02:35 -11.88070 116.85215 35040 ft 456 kts 153°
2025-09-09 02:37 -12.11100 116.95787 35037 ft 455 kts 162°
2025-09-09 02:39 -12.35041 117.04327 35042 ft 457 kts 162°
2025-09-09 02:41 -12.59062 117.12905 35045 ft 459 kts 162°
2025-09-09 02:43 -12.83134 117.21535 35052 ft 459 kts 162°
2025-09-09 02:44 -13.04210 117.29079 35056 ft 459 kts 162°
2025-09-09 02:47 -13.31314 117.38817 35055 ft 459 kts 162°
2025-09-09 02:49 -13.55428 117.47516 35057 ft 460 kts 163°
2025-09-09 02:51 -13.82628 117.57325 35060 ft 462 kts 163°
2025-09-09 02:53 -14.03845 117.65011 35064 ft 462 kts 164°
2025-09-09 02:55 -14.28079 117.73798 35065 ft 463 kts 164°
2025-09-09 02:57 -14.52339 117.82615 35062 ft 463 kts 164°
2025-09-09 02:59 -14.76642 117.91465 35058 ft 464 kts 164°
2025-09-09 03:01 -15.00953 118.00556 35057 ft 470 kts 155°
2025-09-09 03:03 -15.23867 118.13745 35060 ft 473 kts 155°
2025-09-09 03:05 -15.46871 118.26988 35059 ft 475 kts 155°
2025-09-09 03:07 -15.69953 118.40340 35053 ft 477 kts 155°
2025-09-09 03:08 -15.90226 118.52087 35058 ft 478 kts 155°
2025-09-09 03:11 -16.16387 118.67288 35055 ft 480 kts 155°
2025-09-09 03:13 -16.39714 118.80890 35060 ft 482 kts 156°
2025-09-09 03:15 -16.63113 118.94558 35062 ft 484 kts 156°
2025-09-09 03:16 -16.83680 119.06613 35059 ft 485 kts 156°
2025-09-09 03:19 -17.13156 119.23937 35058 ft 488 kts 156°
2025-09-09 03:21 -17.33862 119.36148 35059 ft 490 kts 156°
2025-09-09 03:23 -17.60577 119.51946 35063 ft 492 kts 156°
2025-09-09 03:25 -17.81403 119.64288 35066 ft 493 kts 157°
2025-09-09 03:27 -18.05266 119.78502 35058 ft 495 kts 157°
2025-09-09 03:28 -18.26221 119.91001 35062 ft 497 kts 157°
2025-09-09 03:31 -18.53310 120.07223 35067 ft 499 kts 157°
2025-09-09 03:32 -18.74428 120.19903 35072 ft 501 kts 158°
2025-09-09 03:35 -19.01693 120.36341 35074 ft 504 kts 158°
2025-09-09 03:36 -19.23047 120.49249 36052 ft 507 kts 158°
2025-09-09 03:39 -19.50276 120.66355 37058 ft 509 kts 155°
2025-09-09 03:41 -19.74330 120.82128 37068 ft 510 kts 156°
2025-09-09 03:43 -19.98483 120.98011 37069 ft 512 kts 156°
2025-09-09 03:45 -20.22773 121.14031 37092 ft 515 kts 156°
2025-09-09 03:47 -20.46084 121.29453 37107 ft 517 kts 156°
2025-09-09 03:49 -20.70510 121.45688 37115 ft 519 kts 156°
2025-09-09 03:51 -20.95021 121.62031 37128 ft 521 kts 156°
2025-09-09 03:53 -21.19604 121.78494 37136 ft 523 kts 156°
2025-09-09 03:55 -21.44247 121.95073 37145 ft 525 kts 156°
2025-09-09 03:56 -21.64573 122.12293 37149 ft 536 kts 146°
2025-09-09 03:59 -21.90152 122.35727 37154 ft 539 kts 146°
2025-09-09 04:00 -22.10106 122.54086 37146 ft 541 kts 146°
2025-09-09 04:03 -22.38682 122.80518 37163 ft 542 kts 146°
2025-09-09 04:04 -22.55875 122.96476 37174 ft 543 kts 146°
2025-09-09 04:07 -22.81635 123.20506 37182 ft 544 kts 146°
2025-09-09 04:09 -23.04541 123.41961 37188 ft 545 kts 146°
2025-09-09 04:11 -23.27423 123.63528 37195 ft 545 kts 146°
2025-09-09 04:13 -23.50302 123.85175 37199 ft 546 kts 146°
2025-09-09 04:15 -23.74451 124.04578 37207 ft 540 kts 151°
2025-09-09 04:17 -23.97957 124.23503 37187 ft 509 kts 154°
2025-09-09 04:19 -24.20797 124.41828 37201 ft 511 kts 154°
2025-09-09 04:20 -24.40808 124.57955 37209 ft 512 kts 154°
2025-09-09 04:23 -24.66563 124.78837 37218 ft 513 kts 154°
2025-09-09 04:24 -24.86618 124.95174 37223 ft 514 kts 154°
2025-09-09 04:27 -25.12448 125.16314 37222 ft 515 kts 154°
2025-09-09 04:29 -25.35477 125.35247 37232 ft 517 kts 154°
2025-09-09 04:31 -25.58505 125.54268 37221 ft 518 kts 154°
2025-09-09 04:33 -25.81561 125.73414 37226 ft 519 kts 154°
2025-09-09 04:35 -26.04661 125.92679 37227 ft 521 kts 155°
2025-09-09 04:37 -26.27811 126.12113 37229 ft 523 kts 155°
2025-09-09 04:39 -26.51030 126.31701 37233 ft 525 kts 155°
2025-09-09 04:40 -26.71378 126.48927 37231 ft 526 kts 155°
2025-09-09 04:43 -26.97537 126.71219 37228 ft 526 kts 155°
2025-09-09 04:45 -27.23663 126.93610 37224 ft 526 kts 154°
2025-09-09 04:47 -27.43992 127.11105 37232 ft 526 kts 154°
2025-09-09 04:48 -27.63504 127.30082 37226 ft 537 kts 146°
2025-09-09 04:51 -27.87497 127.56654 37218 ft 537 kts 146°
2025-09-09 04:52 -28.06093 127.77371 37211 ft 537 kts 145°
2025-09-09 04:55 -28.29945 128.04081 37210 ft 536 kts 145°
2025-09-09 04:57 -28.53703 128.30873 37207 ft 535 kts 145°
2025-09-09 04:59 -28.72102 128.51739 37190 ft 534 kts 145°
2025-09-09 05:01 -28.93022 128.75622 37186 ft 532 kts 144°
2025-09-09 05:03 -29.13834 128.99507 37181 ft 530 kts 144°
2025-09-09 05:05 -29.37112 129.26393 37170 ft 528 kts 143°
2025-09-09 05:07 -29.55151 129.47370 37152 ft 527 kts 143°
2025-09-09 05:09 -29.75667 129.71369 37143 ft 527 kts 143°
2025-09-09 05:11 -29.96117 129.95431 37133 ft 526 kts 143°
2025-09-09 05:12 -30.13858 130.16703 37123 ft 527 kts 142°
2025-09-09 05:15 -30.36566 130.44258 37107 ft 527 kts 141°
2025-09-09 05:16 -30.54225 130.65839 37101 ft 527 kts 141°
2025-09-09 05:19 -30.76897 130.93697 37104 ft 528 kts 141°
2025-09-09 05:20 -30.94514 131.15461 37102 ft 529 kts 140°
2025-09-09 05:23 -31.17125 131.43624 37099 ft 529 kts 140°
2025-09-09 05:24 -31.34664 131.65606 37105 ft 529 kts 139°
2025-09-09 05:27 -31.57174 131.94022 37103 ft 528 kts 139°
2025-09-09 05:28 -31.74583 132.16129 37103 ft 527 kts 138°
2025-09-09 05:31 -31.96879 132.44644 37106 ft 526 kts 137°
2025-09-09 05:33 -32.19043 132.73209 37111 ft 525 kts 137°
2025-09-09 05:35 -32.36189 132.95469 37106 ft 524 kts 136°
2025-09-09 05:37 -32.55726 133.20998 37095 ft 523 kts 136°
2025-09-09 05:39 -32.75150 133.46548 37085 ft 522 kts 135°
2025-09-09 05:41 -32.96900 133.75383 37078 ft 521 kts 135°
2025-09-09 05:43 -33.13735 133.97865 37078 ft 520 kts 135°
2025-09-09 05:44 -33.30509 134.20397 37075 ft 519 kts 134°
2025-09-09 05:47 -33.51254 134.48447 37071 ft 520 kts 134°
2025-09-09 05:49 -33.72710 134.77702 37064 ft 520 kts 134°
2025-09-09 05:51 -33.89385 135.00612 37054 ft 520 kts 133°
2025-09-09 05:52 -34.05995 135.23578 37058 ft 520 kts 133°
2025-09-09 05:55 -34.20047 135.58355 37046 ft 521 kts 107°
2025-09-09 05:57 -34.28943 135.91720 37051 ft 521 kts 106°
2025-09-09 05:59 -34.37730 136.25046 35867 ft 520 kts 105°
2025-09-09 06:01 -34.46310 136.58090 32867 ft 512 kts 104°
2025-09-09 06:02 -34.53671 136.86706 29247 ft 500 kts 103°
2025-09-09 06:05 -34.63439 137.25135 25390 ft 454 kts 102°
2025-09-09 06:06 -34.66991 137.39263 24187 ft 434 kts 103°
2025-09-09 06:06 -34.68720 137.46187 23600 ft 423 kts 103°
2025-09-09 06:07 -34.69567 137.49593 23204 ft 419 kts 103°
2025-09-09 06:07 -34.71243 137.56324 22345 ft 413 kts 103°
2025-09-09 06:08 -34.72875 137.62907 21478 ft 406 kts 103°
2025-09-09 06:08 -34.74494 137.69431 20607 ft 400 kts 102°
2025-09-09 06:08 -34.75292 137.72654 20170 ft 397 kts 102°
2025-09-09 06:09 -34.77653 137.82199 18889 ft 388 kts 102°
2025-09-09 06:10 -34.79944 137.91537 17542 ft 379 kts 102°
2025-09-09 06:10 -34.80682 137.94543 16733 ft 374 kts 102°
2025-09-09 06:11 -34.82153 138.00543 15361 ft 363 kts 102°
2025-09-09 06:11 -34.83580 138.06398 14578 ft 359 kts 103°
2025-09-09 06:12 -34.84924 138.12213 13773 ft 353 kts 95°
2025-09-09 06:12 -34.85066 138.15159 13345 ft 345 kts 81°
2025-09-09 06:13 -34.83650 138.26399 11783 ft 331 kts 77°
2025-09-09 06:13 -34.82959 138.31737 11469 ft 311 kts 77°
2025-09-09 06:14 -34.82298 138.36836 10751 ft 299 kts 77°
2025-09-09 06:14 -34.81974 138.39318 10195 ft 295 kts 77°
2025-09-09 06:15 -34.81332 138.44159 9241 ft 286 kts 78°
2025-09-09 06:15 -34.80699 138.48896 8474 ft 280 kts 78°
2025-09-09 06:16 -34.80091 138.53468 7533 ft 265 kts 79°
2025-09-09 06:16 -34.78151 138.59417 6130 ft 248 kts 57°
2025-09-09 06:17 -34.76290 138.62875 5223 ft 244 kts 59°
2025-09-09 06:17 -34.74453 138.66324 4588 ft 242 kts 59°
2025-09-09 06:18 -34.73838 138.68198 4301 ft 238 kts 85°
2025-09-09 06:18 -34.74789 138.71727 4011 ft 216 kts 134°
2025-09-09 06:19 -34.77014 138.74000 3685 ft 202 kts 140°
2025-09-09 06:19 -34.79537 138.74723 3075 ft 199 kts 198°
2025-09-09 06:20 -34.81505 138.72450 2680 ft 193 kts 229°
2025-09-09 06:20 -34.84034 138.68715 2286 ft 190 kts 227°
2025-09-09 06:21 -34.85752 138.66276 2031 ft 189 kts 227°
2025-09-09 06:21 -34.87448 138.63867 1772 ft 186 kts 227°
2025-09-09 06:22 -34.88258 138.62713 1630 ft 173 kts 227°
2025-09-09 06:22 -34.89711 138.60638 1317 ft 150 kts 227°
2025-09-09 06:23 -34.91012 138.58760 951 ft 143 kts 229°
2025-09-09 06:23 -34.92260 138.56927 590 ft 137 kts 226°
2025-09-09 06:24 -34.93488 138.55146 262 ft 135 kts 227°
2025-09-09 06:24 -34.95073 138.52871 22 ft 72 kts 230°
2025-09-09 06:25 -34.95173 138.52487 20 ft 16 kts 319°
2025-09-09 06:25 -34.95164 138.52477 21 ft 0 kts 319°
2025-09-09 06:26 -34.95151 138.52468 21 ft 2 kts 332°
2025-09-09 06:26 -34.95122 138.52454 22 ft 4 kts 343°
2025-09-09 06:27 -34.95043 138.52452 23 ft 9 kts 13°
2025-09-09 06:27 -34.94891 138.52579 24 ft 17 kts 38°
2025-09-09 06:28 -34.94676 138.52786 24 ft 22 kts 38°
2025-09-09 06:28 -34.94559 138.52893 27 ft 20 kts 36°
2025-09-09 06:29 -34.94505 138.53333 23 ft 22 kts 62°
2025-09-09 06:29 -34.94304 138.53635 21 ft 19 kts 48°
2025-09-09 06:30 -34.94139 138.53702 26 ft 12 kts 46°
2025-09-09 06:30 -34.94045 138.53841 27 ft 10 kts 56°
2025-09-09 06:31 -34.93959 138.53857 28 ft 4 kts 302°
2025-09-09 06:31 -34.93949 138.53845 28 ft 0 kts 320°